Albany, GA

2:14 AM EDT on August 29, 2016 (GMT -0400)
Southwest Georgia Regional

Weather History for KABY - November, 2012

Change the Weather History Date:

Thursday, November 29, 2012

  Actual Average Record
Temperature  
Mean Temperature 51 °F 55 °F  
Max Temperature 65 °F 67 °F 83 °F (1990)
Min Temperature 37 °F 43 °F 22 °F (1955)
Degree Days  
Heating Degree Days 14 11  
Month to date heating degree days 277 208  
Since 1 July heating degree days 328 258  
Cooling Degree Days 0 0  
Month to date cooling degree days 9 31  
Year to date cooling degree days 2803 2534  
Moisture  
Dew Point 42 °F    
Average Humidity 74    
Maximum Humidity 100    
Minimum Humidity 48    
Precipitation  
Precipitation 0.00 in 0.16 in 0.51 in (2008)
Month to date precipitation 0.54 3.02  
Year to date precipitation 27.43 44.65  
Sea Level Pressure  
Sea Level Pressure 30.38 in    
Wind  
Wind Speed 3 mph (NE)    
Max Wind Speed 10 mph    
Max Gust Speed 14 mph    
Visibility 7 miles    
Events      
T = Trace of Precipitation, MM = Missing Value Source: NWS Daily Summary

Daily Weather History Graph

Daily Weather History Graph

Search for Another Location

Airport or City:

Trip Planner

Search our weather history database for the weather conditions in past years. The results will help you decide how hot, cold, wet, or windy it might be!

Date:

Astronomy

Nov. 29, 2012 Rise Set
Actual Time 7:17 AM EST 5:33 PM EST
Civil Twilight 6:50 AM EST 5:59 PM EST
Nautical Twilight 6:20 AM EST 6:29 PM EST
Astronomical Twilight 5:51 AM EST 6:59 PM EST
Moon 6:35 PM EST 8:02 AM EST
Length of Visible Light 11h 09m
Length of Day
10h 16m
Full, 99% of the Moon is Illuminated
Nov 29
Full
Dec 6
Last Quarter
Dec 13
New
Dec 20
First Quarter
Dec 28
Full

Hourly Weather History & Observations

Time (EST) Temp. Windchill Dew Point Humidity Pressure Visibility Wind Dir Wind Speed Gust Speed Precip Events Conditions
12:53 AM 39.9 °F - 39.0 °F 97% 30.38 in 4.0 mi Calm Calm - N/A   Clear
1:53 AM 39.0 °F - 37.0 °F 93% 30.38 in 5.0 mi Calm Calm - N/A   Clear
2:53 AM 39.0 °F - 37.0 °F 93% 30.38 in 4.0 mi Calm Calm - N/A   Clear
3:53 AM 37.9 °F - 37.0 °F 97% 30.38 in 4.0 mi Calm Calm - N/A   Clear
4:53 AM 39.0 °F - 37.0 °F 93% 30.38 in 4.0 mi Calm Calm - N/A   Clear
5:18 AM 37.4 °F - 35.6 °F 93% 30.38 in 4.0 mi Calm Calm - N/A   Mostly Cloudy
5:53 AM 41.0 °F - 39.9 °F 96% 30.39 in 3.0 mi Calm Calm - N/A   Overcast
6:53 AM 43.0 °F 40.3 °F 41.0 °F 93% 30.41 in 4.0 mi NNE 4.6 mph - N/A   Overcast
7:18 AM 42.8 °F - 41.0 °F 93% 30.41 in 2.5 mi Calm Calm - N/A   Mostly Cloudy
7:40 AM 42.8 °F - 39.2 °F 87% 30.41 in 1.8 mi Calm Calm - N/A   Scattered Clouds
7:50 AM 42.8 °F 40.1 °F 39.2 °F 87% 30.42 in 2.0 mi NNE 4.6 mph - N/A   Scattered Clouds
7:53 AM 42.1 °F 39.2 °F 41.0 °F 96% 30.42 in 5.0 mi NE 4.6 mph - N/A   Scattered Clouds
8:53 AM 45.0 °F 41.8 °F 43.0 °F 93% 30.43 in 5.0 mi ENE 5.8 mph - N/A   Mostly Cloudy
9:53 AM 48.9 °F - 45.0 °F 86% 30.44 in 5.0 mi NE 8.1 mph - N/A   Overcast
10:53 AM 54.0 °F - 43.0 °F 66% 30.44 in 7.0 mi NE 9.2 mph - N/A   Mostly Cloudy
11:53 AM 57.9 °F - 43.0 °F 58% 30.43 in 9.0 mi NNE 5.8 mph - N/A   Mostly Cloudy
12:53 PM 61.0 °F - 44.1 °F 54% 30.39 in 10.0 mi NNE 5.8 mph - N/A   Mostly Cloudy
1:53 PM 63.0 °F - 44.1 °F 50% 30.36 in 10.0 mi Calm Calm - N/A   Mostly Cloudy
2:53 PM 64.9 °F - 44.1 °F 47% 30.34 in 10.0 mi Variable 5.8 mph - N/A   Partly Cloudy
3:53 PM 64.9 °F - 45.0 °F 48% 30.33 in 10.0 mi East 6.9 mph - N/A   Clear
4:53 PM 63.0 °F - 45.0 °F 52% 30.33 in 10.0 mi ENE 5.8 mph - N/A   Overcast
5:53 PM 57.9 °F - 46.0 °F 65% 30.34 in 10.0 mi Calm Calm - N/A   Mostly Cloudy
6:53 PM 53.1 °F - 46.0 °F 77% 30.34 in 10.0 mi Calm Calm - N/A   Clear
7:53 PM 50.0 °F - 45.0 °F 83% 30.35 in 10.0 mi Calm Calm - N/A   Clear
8:53 PM 48.9 °F - 45.0 °F 86% 30.36 in 9.0 mi Calm Calm - N/A   Clear
9:53 PM 50.0 °F - 45.0 °F 83% 30.35 in 9.0 mi NE 4.6 mph - N/A   Clear
10:53 PM 50.0 °F - 46.0 °F 86% 30.36 in 9.0 mi ENE 5.8 mph - N/A   Clear
11:53 PM 48.9 °F - 45.0 °F 86% 30.36 in 8.0 mi Calm Calm - N/A   Mostly Cloudy